Hourly Data Report for May 06, 2020

TORONTO CITY
ONTARIO
Current Station Operator: ECCC - MSC

43°40'00.000" N
79°24'00.000" W
112.50 m
6158355
71508
XTO

Download Data

Hourly Data (May 2020)
Hourly Data Report for May 6, 2020
TIME
LST
Temp Definition
°C
Dew Point Definition
°C
Rel Hum Definition
%
Precip. Amount Definition
mm

Wind Dir Definition
10's deg

Wind Spd Definition
km/h
Visibility Definition
km
Stn Press Definition
kPa
Hmdx Definition


Wind Chill Definition


Weather Definition


00:00 5.5 -4.8 48 0.0       100.06     LegendNANA
01:00 5.5 -5.6 45 0.0       100.06     LegendNANA
02:00 5.5 -5.7 44 0.0       100.03     LegendNANA
03:00 5.1 -5.1 48 0.0       100.04     LegendNANA
04:00 5.2 -4.7 49 0.0       100.02     LegendNANA
05:00 5.7 -5.1 46 0.0       99.99     LegendNANA
06:00 6.0 -5.4 44 0.0       99.99     LegendNANA
07:00 6.4 -4.1 47 0.0       100.01     LegendNANA
08:00 7.6 -4.7 41 0.0       100.03     LegendNANA
09:00 10.1 -6.6 30 0.0       100.03     LegendNANA
10:00 11.7 -6.9 26 0.0       100.01     LegendNANA
11:00 10.1 -3.7 38 0.0       100.01     LegendNANA
12:00 9.9 -6.5 31 0.4       99.98     LegendNANA
13:00 11.0 -6.0 30 0.0       99.96     LegendNANA
14:00 11.2 -6.1 29 0.0       99.91     LegendNANA
15:00 11.0 -5.9 30 0.3       99.87     LegendNANA
16:00 11.0 -5.9 30 0.4       99.85     LegendNANA
17:00 10.5 -7.1 28 0.2       99.84     LegendNANA
18:00 9.8 -6.9 30 0.0       99.83     LegendNANA
19:00 9.7 -7.9 28 0.0       99.84     LegendNANA
20:00 9.0 -7.8 30 0.0       99.88     LegendNANA
21:00 10.5 -9.3 24 0.0       99.89     LegendNANA
22:00 9.8 -9.1 25 0.0       99.86     LegendNANA
23:00 9.4 -8.6 27 0.0       99.84     LegendNANA

Notes on Data Quality.

Legend

  • E = Estimated
  • M = Missing
  • NA = Not Available*
  • [empty] = Indicates an unobserved value
Date modified: